GW7719 Weather Reports


time (UTC)temp
C
wind
direction
speed
KPH
gust
KPH
rain 1hr
cm
rain 24hr
cm
rain mn
cm
humidity
%
barometer
mb
20260906211945 30 226 19.3 24.1 0.00 0.00 0.00 32 1247.7
20260906211440 30 228 14.5 16.1 0.00 0.00 0.00 27 1247.4
20260906210935 30 230 9.7 14.5 0.00 0.00 0.00 24 1247.4
20260906210431 30 192 9.7 22.5 0.00 0.00 0.00 23 1247.7
20260906205924 31 257 4.8 12.9 0.00 0.00 0.00 20 1247.7
20260906205421 30 184 11.3 19.3 0.00 0.00 0.00 23 1247.4
20260906204917 30 222 12.9 24.1 0.00 0.00 0.00 22 1247.7
20260906204415 30 183 12.9 17.7 0.00 0.00 0.00 23 1247.9
20260906203915 30 230 17.7 27.4 0.00 0.00 0.00 24 1247.7
20260906203410 30 226 14.5 20.9 0.00 0.00 0.00 26 1247.8
20260906202908 30 205 12.9 29.0 0.00 0.00 0.00 25 1248.0
20260906202408 30 263 9.7 22.5 0.00 0.00 0.00 22 1247.9
20260906201907 30 235 17.7 27.4 0.00 0.00 0.00 21 1248.3
20260906201402 30 230 9.7 19.3 0.00 0.00 0.00 24 1248.0
20260906200857 31 221 24.1 27.4 0.00 0.00 0.00 21 1248.2
20260906200354 31 238 11.3 14.5 0.00 0.00 0.00 22 1248.0
20260906195854 30 242 11.3 17.7 0.00 0.00 0.00 22 1247.9
20260906195350 30 228 17.7 20.9 0.00 0.00 0.00 22 1248.2
20260906194846 30 168 4.8 19.3 0.00 0.00 0.00 22 1248.2
20260906194341 30 142 3.2 9.7 0.00 0.00 0.00 21 1248.0
20260906193836 30 218 14.5 19.3 0.00 0.00 0.00 21 1248.2
20260906193332 30 230 12.9 24.1 0.00 0.00 0.00 22 1248.2
20260906192827 30 219 11.3 12.9 0.00 0.00 0.00 23 1248.3
20260906192327 30 235 17.7 22.5 0.00 0.00 0.00 24 1248.2
20260906191827 30 257 6.4 19.3 0.00 0.00 0.00 25 1248.4
20260906191327 30 238 6.4 19.3 0.00 0.00 0.00 25 1248.3
20260906190821 30 231 14.5 16.1 0.00 0.00 0.00 25 1248.4
20260906190321 30 208 9.7 12.9 0.00 0.00 0.00 23 1248.5
20260906185820 30 263 6.4 9.7 0.00 0.00 0.00 24 1248.7
20260906185320 30 254 4.8 11.3 0.00 0.00 0.00 26 1248.6
20260906184814 30 1 0.0 6.4 0.00 0.00 0.00 27 1248.9
20260906184309 30 196 3.2 8.0 0.00 0.00 0.00 28 1248.9
20260906183805 30 168 3.2 6.4 0.00 0.00 0.00 26 1248.9
20260906183301 29 237 8.0 9.7 0.00 0.00 0.00 27 1248.9
20260906182801 29 155 4.8 12.9 0.00 0.00 0.00 27 1249.2
20260906182257 30 215 12.9 17.7 0.00 0.00 0.00 26 1249.3
20260906181752 30 244 4.8 6.4 0.00 0.00 0.00 27 1249.2
20260906181249 28 240 8.0 9.7 0.00 0.00 0.00 27 1249.2
20260906180748 30 253 4.8 6.4 0.00 0.00 0.00 26 1249.6
20260906180244 30 240 6.4 11.3 0.00 0.00 0.00 27 1249.6
20260906175741 29 172 3.2 6.4 0.00 0.00 0.00 26 1249.6
20260906175237 28 216 9.7 11.3 0.00 0.00 0.00 28 1249.6
20260906174735 29 201 3.2 9.7 0.00 0.00 0.00 29 1249.7
20260906174235 28 223 6.4 11.3 0.00 0.00 0.00 29 1249.7
20260906173730 28 199 8.0 12.9 0.00 0.00 0.00 30 1249.9
20260906173226 28 188 6.4 11.3 0.00 0.00 0.00 32 1249.8
20260906172725 27 208 6.4 8.0 0.00 0.00 0.00 32 1249.8
20260906172220 27 204 12.9 17.7 0.00 0.00 0.00 32 1250.2
20260906171721 27 238 11.3 17.7 0.00 0.00 0.00 34 1250.1
20260906171216 27 220 8.0 14.5 0.00 0.00 0.00 34 1250.2
20260906170712 27 205 6.4 11.3 0.00 0.00 0.00 36 1250.2
20260906170212 26 195 8.0 19.3 0.00 0.00 0.00 36 1250.2
20260906165708 26 209 6.4 19.3 0.00 0.00 0.00 37 1250.2
20260906165203 26 200 9.7 12.9 0.00 0.00 0.00 38 1250.2
20260906164702 26 228 9.7 11.3 0.00 0.00 0.00 39 1250.2
20260906164158 26 190 4.8 9.7 0.00 0.00 0.00 40 1250.3
20260906163654 26 208 9.7 12.9 0.00 0.00 0.00 40 1250.5
20260906163150 26 186 4.8 9.7 0.00 0.00 0.00 40 1250.6
20260906162647 26 206 3.2 6.4 0.00 0.00 0.00 41 1250.6
20260906162146 25 158 3.2 8.0 0.00 0.00 0.00 44 1250.6
20260906161641 24 219 14.5 22.5 0.00 0.00 0.00 43 1250.8
20260906161140 25 217 9.7 17.7 0.00 0.00 0.00 45 1250.8
20260906160639 24 222 8.0 17.7 0.00 0.00 0.00 47 1250.5
20260906160138 23 227 9.7 24.1 0.00 0.00 0.00 47 1250.8
20260906155636 23 220 27.4 30.6 0.00 0.00 0.00 46 1250.6
20260906155132 23 208 20.9 24.1 0.00 0.00 0.00 46 1250.6
20260906154627 23 211 11.3 17.7 0.00 0.00 0.00 46 1250.3
20260906154126 23 232 16.1 20.9 0.00 0.00 0.00 47 1250.6
20260906153625 23 196 8.0 20.9 0.00 0.00 0.00 47 1250.6
20260906153120 22 205 19.3 22.5 0.00 0.00 0.00 48 1250.8
20260906152615 22 203 17.7 27.4 0.00 0.00 0.00 49 1250.6
20260906152115 23 234 19.3 22.5 0.00 0.00 0.00 48 1250.5
20260906151610 22 253 11.3 25.7 0.00 0.00 0.00 49 1250.5
20260906151106 22 224 14.5 24.1 0.00 0.00 0.00 50 1250.4
20260906150601 22 218 14.5 25.7 0.00 0.00 0.00 50 1250.5
20260906150056 22 233 17.7 27.4 0.00 0.00 0.00 51 1250.5
20260906145554 22 230 19.3 29.0 0.00 0.00 0.00 51 1250.4
20260906145050 22 231 17.7 24.1 0.00 0.00 0.00 51 1250.5
20260906144544 22 219 24.1 33.8 0.00 0.00 0.00 51 1250.6
20260906144039 21 226 14.5 29.0 0.00 0.00 0.00 50 1250.5
20260906143534 21 221 17.7 25.7 0.00 0.00 0.00 49 1250.6
20260906143032 21 231 17.7 25.7 0.00 0.00 0.00 49 1250.4
20260906142530 21 233 17.7 24.1 0.00 0.00 0.00 48 1250.5
20260906142026 21 221 14.5 25.7 0.00 0.00 0.00 48 1250.6
20260906141525 21 220 19.3 25.7 0.00 0.00 0.00 48 1250.5
20260906141021 21 223 22.5 29.0 0.00 0.00 0.00 50 1250.5
20260906140520 21 201 9.7 22.5 0.00 0.00 0.00 50 1250.4
20260906140020 20 244 11.3 16.1 0.00 0.00 0.00 52 1250.5
20260906135517 20 231 3.2 27.4 0.00 0.00 0.00 50 1250.5
20260906135013 20 237 19.3 19.3 0.00 0.00 0.00 50 1250.8
20260906134508 20 224 3.2 17.7 0.00 0.00 0.00 49 1250.4
20260906134008 20 225 22.5 30.6 0.00 0.00 0.00 48 1250.5
20260906133504 20 246 14.5 22.5 0.00 0.00 0.00 50 1250.4
20260906132959 20 216 9.7 24.1 0.00 0.00 0.00 50 1250.4
20260906132454 19 232 16.1 22.5 0.00 0.00 0.00 50 1250.3
20260906131949 19 223 9.7 16.1 0.00 0.00 0.00 50 1250.3
20260906131445 19 232 20.9 22.5 0.00 0.00 0.00 50 1250.3
20260906130940 19 243 11.3 20.9 0.00 0.00 0.00 52 1250.2
20260906130439 19 241 11.3 19.3 0.00 0.00 0.00 53 1250.5
20260906125934 19 227 9.7 22.5 0.00 0.00 0.00 54 1250.4
20260906125432 18 220 12.9 14.5 0.00 0.00 0.00 57 1250.4
20260906124931 18 238 12.9 20.9 0.00 0.00 0.00 58 1250.3
20260906124428 18 215 9.7 19.3 0.00 0.00 0.00 59 1250.3
20260906123927 18 241 11.3 14.5 0.00 0.00 0.00 61 1250.1
20260906123426 18 203 9.7 11.3 0.00 0.00 0.00 62 1250.5
20260906122921 17 210 3.2 3.2 0.00 0.00 0.00 63 1250.3
20260906122421 18 241 3.2 4.8 0.00 0.00 0.00 62 1250.4
20260906121919 18 233 6.4 8.0 0.00 0.00 0.00 61 1250.4
20260906121414 18 212 6.4 8.0 0.00 0.00 0.00 61 1250.3
20260906120911 18 246 6.4 11.3 0.00 0.00 0.00 61 1250.4
20260906120406 18 216 3.2 6.4 0.00 0.00 0.00 61 1250.3
20260906115902 18 223 8.0 14.5 0.00 0.00 0.00 60 1250.4
20260906115357 18 246 9.7 9.7 0.00 0.00 0.00 62 1250.4
20260906114856 17 236 6.4 9.7 0.00 0.00 0.00 64 1250.5
20260906114352 17 219 0.0 4.8 0.00 0.00 0.00 66 1250.3
20260906113847 16 142 0.0 4.8 0.00 0.00 0.00 67 1250.4
20260906113346 17 190 1.6 3.2 0.00 0.00 0.00 67 1250.6
20260906112842 16 129 0.0 0.0 0.00 0.00 0.00 69 1250.4
20260906112338 17 224 12.9 14.5 0.00 0.00 0.00 67 1250.8
20260906111838 16 230 4.8 6.4 0.00 0.00 0.00 69 1250.6
20260906111337 17 325 0.0 1.6 0.00 0.00 0.00 69 1250.5
20260906110832 17 269 0.0 3.2 0.00 0.00 0.00 68 1250.8
20260906110328 17 38 0.0 3.2 0.00 0.00 0.00 68 1250.8
20260906105827 17 269 0.0 1.6 0.00 0.00 0.00 67 1250.6
20260906105323 17 324 0.0 4.8 0.00 0.00 0.00 66 1250.6
20260906104819 17 259 6.4 6.4 0.00 0.00 0.00 68 1250.8
20260906104317 17 311 3.2 3.2 0.00 0.00 0.00 69 1250.5
20260906103816 17 25 1.6 3.2 0.00 0.00 0.00 67 1250.8
20260906103315 18 230 0.0 4.8 0.00 0.00 0.00 66 1250.9
20260906102811 18 187 3.2 9.7 0.00 0.00 0.00 65 1250.6
20260906102309 18 239 6.4 8.0 0.00 0.00 0.00 65 1250.5
20260906101805 18 275 3.2 6.4 0.00 0.00 0.00 65 1250.6
20260906101300 18 266 4.8 14.5 0.00 0.00 0.00 64 1250.5
20260906100755 18 265 6.4 11.3 0.00 0.00 0.00 65 1250.8
20260906100254 18 240 3.2 8.0 0.00 0.00 0.00 64 1250.6
20260906095750 18 199 8.0 9.7 0.00 0.00 0.00 64 1250.5
20260906095245 18 240 9.7 17.7 0.00 0.00 0.00 64 1250.5
20260906094744 18 231 6.4 17.7 0.00 0.00 0.00 65 1250.5
20260906094239 18 255 6.4 20.9 0.00 0.00 0.00 65 1250.4
20260906093736 18 239 9.7 17.7 0.00 0.00 0.00 66 1250.5
20260906093231 18 240 8.0 14.5 0.00 0.00 0.00 65 1250.2
20260906092727 18 271 14.5 17.7 0.00 0.00 0.00 66 1250.3
20260906092226 18 285 1.6 6.4 0.00 0.00 0.00 66 1250.4
20260906091722 18 241 6.4 8.0 0.00 0.00 0.00 65 1250.8
20260906091218 18 252 9.7 14.5 0.00 0.00 0.00 64 1250.4
20260906090715 18 213 20.9 22.5 0.00 0.00 0.00 64 1250.5
20260906090213 18 218 16.1 19.3 0.00 0.00 0.00 66 1250.5
20260906085713 18 240 6.4 12.9 0.00 0.00 0.00 66 1250.3
20260906085211 18 208 3.2 9.7 0.00 0.00 0.00 65 1250.4
20260906084707 18 252 6.4 17.7 0.00 0.00 0.00 65 1250.4
20260906084206 18 237 12.9 20.9 0.00 0.00 0.00 64 1250.6
20260906083702 18 240 12.9 14.5 0.00 0.00 0.00 64 1250.6
20260906083157 18 244 16.1 16.1 0.00 0.00 0.00 65 1250.6
20260906082652 18 212 8.0 20.9 0.00 0.00 0.00 66 1250.6
20260906082147 17 232 11.3 14.5 0.00 0.00 0.00 68 1250.8
20260906081643 16 229 3.2 12.9 0.00 0.00 0.00 73 1250.5
20260906081138 13 345 0.0 4.8 0.00 0.00 0.00 82 1250.9
20260906080635 13 183 3.2 3.2 0.00 0.00 0.00 83 1250.5
20260906080131 13 55 0.0 3.2 0.00 0.00 0.00 83 1250.4
20260906075630 13 129 0.0 0.0 0.00 0.00 0.00 83 1250.4
20260906075125 13 217 0.0 3.2 0.00 0.00 0.00 82 1250.3
20260906074620 13 6 0.0 0.0 0.00 0.00 0.00 82 1250.4
20260906074119 13 294 0.0 1.6 0.00 0.00 0.00 83 1250.5
20260906073614 13 269 0.0 1.6 0.00 0.00 0.00 84 1250.9
20260906073109 13 194 1.6 1.6 0.00 0.00 0.00 85 1250.8
20260906072604 13 135 0.0 0.0 0.00 0.00 0.00 85 1250.8
20260906072100 14 221 1.6 3.2 0.00 0.00 0.00 84 1250.6
20260906071557 14 354 0.0 1.6 0.00 0.00 0.00 84 1251.0
20260906071051 14 249 0.0 3.2 0.00 0.00 0.00 84 1251.0
20260906070548 14 353 0.0 1.6 0.00 0.00 0.00 83 1250.8
20260906070043 15 180 0.0 3.2 0.00 0.00 0.00 80 1250.5
20260906065542 15 44 1.6 3.2 0.00 0.00 0.00 79 1250.4
20260906065038 16 202 0.0 1.6 0.00 0.00 0.00 78 1250.5
20260906064534 16 217 0.0 0.0 0.00 0.00 0.00 78 1250.6
20260906064029 16 119 0.0 1.6 0.00 0.00 0.00 76 1250.9
20260906063524 17 256 0.0 0.0 0.00 0.00 0.00 75 1250.8
20260906063020 17 271 1.6 3.2 0.00 0.00 0.00 73 1250.8
20260906062515 18 266 1.6 6.4 0.00 0.00 0.00 71 1251.0
20260906062009 18 247 3.2 4.8 0.00 0.00 0.00 70 1250.9
20260906061505 18 58 0.0 1.6 0.00 0.00 0.00 71 1250.8
20260906060959 18 113 0.0 1.6 0.00 0.00 0.00 70 1251.0
20260906060456 18 47 0.0 1.6 0.00 0.00 0.00 70 1250.9
20260906055953 18 269 0.0 3.2 0.00 0.03 0.03 69 1250.8
20260906055448 18 313 1.6 3.2 0.00 0.03 0.03 69 1250.8
20260906054943 18 318 1.6 3.2 0.00 0.03 0.03 69 1250.9
20260906054443 18 66 0.0 1.6 0.00 0.03 0.03 68 1251.2
20260906053939 18 260 0.0 1.6 0.00 0.03 0.03 68 1251.0
20260906053435 18 119 0.0 3.2 0.00 0.03 0.03 67 1250.9
20260906052931 18 345 1.6 3.2 0.00 0.03 0.03 68 1251.2
20260906052427 17 6 3.2 4.8 0.00 0.03 0.03 69 1251.1
20260906051923 17 181 3.2 4.8 0.00 0.03 0.03 67 1251.1
20260906051424 16 223 1.6 4.8 0.00 0.03 0.03 73 1251.1
20260906050919 15 45 3.2 3.2 0.00 0.03 0.03 72 1251.2
20260906050419 14 83 3.2 3.2 0.00 0.03 0.03 73 1251.2
20260906045918 13 44 0.0 3.2 0.00 0.03 0.03 71 1251.1
20260906045417 14 198 3.2 3.2 0.00 0.03 0.03 71 1251.1
20260906044913 13 43 1.6 1.6 0.00 0.03 0.03 72 1251.1
20260906044414 13 8 3.2 3.2 0.00 0.03 0.03 71 1251.1
20260906043909 14 209 0.0 3.2 0.00 0.03 0.03 69 1251.2
20260906043405 15 269 0.0 3.2 0.00 0.03 0.03 68 1251.2
20260906042901 15 50 0.0 1.6 0.00 0.03 0.03 69 1251.0
20260906042359 15 241 1.6 1.6 0.00 0.03 0.03 68 1251.2
20260906041855 15 51 0.0 1.6 0.00 0.03 0.03 67 1250.9
20260906041350 15 230 0.0 0.0 0.00 0.03 0.03 66 1251.0
20260906040845 15 29 0.0 1.6 0.00 0.03 0.03 66 1251.2
20260906040340 15 37 0.0 0.0 0.00 0.03 0.03 66 1251.0
20260906035836 14 310 0.0 0.0 0.00 0.03 0.03 66 1251.1
20260906035331 14 203 1.6 1.6 0.00 0.03 0.03 66 1251.4
20260906034826 14 155 0.0 0.0 0.00 0.03 0.03 66 1251.2
20260906034321 14 31 0.0 1.6 0.00 0.03 0.03 65 1251.4
20260906033817 15 208 3.2 3.2 0.00 0.03 0.03 65 1251.2
20260906033316 15 191 0.0 0.0 0.00 0.03 0.03 64 1251.2
20260906032812 15 79 0.0 3.2 0.00 0.03 0.03 64 1251.2
20260906032307 15 307 0.0 3.2 0.00 0.03 0.03 63 1251.5
20260906031803 15 290 0.0 1.6 0.00 0.03 0.03 63 1251.6
20260906031258 15 5 0.0 1.6 0.00 0.03 0.03 62 1251.7
20260906030758 15 217 0.0 1.6 0.00 0.03 0.03 61 1251.6
20260906030253 15 246 0.0 3.2 0.00 0.03 0.03 61 1251.5
20260906025753 15 215 0.0 1.6 0.00 0.03 0.03 60 1251.4
20260906025247 15 212 0.0 1.6 0.00 0.03 0.03 60 1251.6
20260906024746 16 185 0.0 3.2 0.00 0.03 0.03 59 1251.5
20260906024245 16 66 0.0 0.0 0.00 0.03 0.03 59 1251.5
20260906023741 16 269 0.0 1.6 0.00 0.03 0.03 58 1251.2
20260906023236 17 309 0.0 0.0 0.00 0.03 0.03 56 1251.2
20260906022731 17 152 0.0 0.0 0.00 0.03 0.03 55 1250.9
20260906022227 17 13 0.0 0.0 0.00 0.03 0.03 55 1251.1
20260906021723 17 13 0.0 0.0 0.00 0.03 0.03 53 1251.0
20260906021222 18 76 0.0 1.6 0.00 0.03 0.03 53 1250.8
20260906020717 18 242 1.6 1.6 0.00 0.03 0.03 51 1250.8
20260906020211 18 142 0.0 1.6 0.00 0.03 0.03 50 1250.8
20260906015706 20 184 3.2 4.8 0.00 0.03 0.03 47 1250.8
20260906015205 20 299 0.0 3.2 0.00 0.03 0.03 42 1250.8
20260906014704 21 265 0.0 3.2 0.00 0.03 0.03 42 1250.6
20260906014201 21 0 0.0 3.2 0.00 0.03 0.03 41 1250.8
20260906013656 21 326 0.0 1.6 0.00 0.03 0.03 40 1250.8
20260906013151 22 102 0.0 1.6 0.00 0.03 0.03 39 1251.0
20260906012652 22 348 1.6 3.2 0.00 0.03 0.03 38 1250.8
20260906012151 22 58 0.0 0.0 0.00 0.03 0.03 39 1250.9
20260906011647 22 202 0.0 0.0 0.00 0.03 0.03 39 1250.8
20260906011142 23 4 0.0 3.2 0.00 0.03 0.03 37 1250.8
20260906010637 23 188 0.0 3.2 0.00 0.03 0.03 36 1251.0
20260906010134 23 141 3.2 4.8 0.00 0.03 0.03 35 1250.6
20260906005632 23 128 3.2 4.8 0.00 0.03 0.03 35 1250.8
20260906005127 24 144 0.0 6.4 0.00 0.03 0.03 35 1250.6
20260906004626 25 136 4.8 6.4 0.00 0.03 0.03 35 1251.0
20260906004120 25 163 6.4 6.4 0.00 0.03 0.03 33 1251.0
20260906003616 25 263 4.8 9.7 0.00 0.03 0.03 32 1250.9
20260906003113 25 119 0.0 4.8 0.00 0.03 0.03 32 1250.8
20260906002612 25 44 0.0 3.2 0.00 0.03 0.03 31 1251.0
20260906002108 25 205 1.6 4.8 0.00 0.03 0.03 32 1250.8
20260906001603 25 227 3.2 4.8 0.00 0.03 0.03 31 1250.8
20260906001103 25 194 3.2 4.8 0.00 0.03 0.03 31 1251.0
20260906000559 26 231 6.4 8.0 0.00 0.03 0.03 31 1250.6
20260906000054 26 123 4.8 6.4 0.00 0.03 0.03 30 1250.4
20260905235553 26 155 1.6 6.4 0.00 0.03 0.03 30 1250.3
20260905235048 27 157 0.0 9.7 0.00 0.03 0.03 29 1250.2
20260905234543 28 351 3.2 3.2 0.00 0.03 0.03 29 1250.1
20260905234039 28 175 1.6 3.2 0.00 0.03 0.03 29 1250.3
20260905233538 27 203 3.2 4.8 0.00 0.03 0.03 29 1250.1
20260905233038 28 0 6.4 6.4 0.00 0.03 0.03 30 1250.1
20260905232534 28 25 1.6 4.8 0.00 0.03 0.03 30 1250.3
20260905232029 27 141 1.6 4.8 0.00 0.03 0.03 31 1250.4
20260905231524 27 203 0.0 4.8 0.00 0.03 0.03 31 1250.3
20260905231021 27 354 6.4 6.4 0.00 0.03 0.03 31 1250.3
20260905230520 27 157 3.2 4.8 0.00 0.03 0.03 26 1250.2
20260905230018 27 186 4.8 9.7 0.00 0.03 0.03 26 1249.9
20260905225513 27 208 4.8 9.7 0.00 0.03 0.03 26 1250.1
20260905225009 27 211 6.4 8.0 0.00 0.03 0.03 26 1250.1
20260905224503 27 213 9.7 14.5 0.00 0.03 0.03 24 1250.2
20260905224003 28 228 12.9 17.7 0.00 0.03 0.03 24 1250.2
20260905223501 28 170 6.4 12.9 0.00 0.03 0.03 25 1250.2
20260905222955 28 153 3.2 9.7 0.00 0.03 0.03 25 1249.9
20260905222455 28 210 4.8 6.4 0.00 0.03 0.03 25 1249.8
20260905221951 28 205 3.2 4.8 0.00 0.03 0.03 24 1249.9
20260905221447 28 6 0.0 4.8 0.00 0.03 0.03 23 1249.9
20260905220943 29 214 9.7 9.7 0.00 0.03 0.03 25 1249.9
20260905220439 28 234 9.7 9.7 0.00 0.03 0.03 23 1249.8
20260905215938 28 238 4.8 6.4 0.00 0.03 0.03 28 1250.1
20260905215434 28 345 1.6 3.2 0.00 0.03 0.03 26 1249.8
20260905214930 28 325 0.0 1.6 0.00 0.03 0.03 28 1250.1
20260905214426 28 152 1.6 3.2 0.00 0.03 0.03 28 1250.1
20260905213926 27 235 0.0 4.8 0.00 0.03 0.03 29 1250.2
20260905213422 27 226 4.8 4.8 0.00 0.03 0.03 30 1250.3
20260905212917 27 190 0.0 3.2 0.00 0.03 0.03 30 1250.3
20260905212412 27 343 0.0 1.6 0.00 0.03 0.03 29 1250.2